Regional Weather Roundup
Issued by NWS

Home | Current Version | Previous Version | Text Only | Print | Product List | Glossary On
Versions: 1 2 3 4 5 6 7 8 9 10 11 12 13 14 15 16 17 18 19 20 21 22 23 24 25 26 27 28 29 30 31 32 33 34 35 36 37 38 39 40 41 42 43 44 45 46 47 48 49 50
000
ASUS42 KKEY 040810
RWRKEY

FLORIDA REGIONAL WEATHER ROUNDUP FOR THE FLORIDA KEYS
NATIONAL WEATHER SERVICE KEY WEST FLORIDA
400 AM EDT SAT JUL 04 2015

...SOUTH FLORIDA AND THE KEYS...

CITY           SKY/WX    TMP DP  RH WIND       PRES   REMARKS
FORT MYERS     CLEAR     73  72  96 E3        30.05F
SW REGIONAL AP CLEAR     72  71  97 NE5       30.06F
NAPLES         CLEAR     74  71  91 E5        30.05F
MIAMI          MOCLDY    77  70  79 NE3       30.06F
WEST KENDALL   CLEAR     75  73  93 CALM      30.06F
HOMESTEAD      CLEAR     78  72  82 NW2       30.05F
MARATHON       CLEAR     84  76  76 E5        30.04F HX  93
BOCA CHICA NAS PTCLDY    84  75  74 E12       30.05S HX  92
KEY WEST INTL  PTCLDY    84  77  79 E9        30.05F HX  94

...INTERNATIONAL WEATHER...

CITY           SKY/WX    TMP DP  RH WIND       PRES   REMARKS
NASSAU BAHAMAS PTCLDY    81  75  83 VRB2      30.09S
CANCUN MEXICO  PTCLDY    82  79  89 E6        30.01F HX  93
COZUMEL MEXICO PTCLDY    75  75 100 CALM      30.00F

ADJACENT COASTAL WATERS...

STATION/POSITION TIME  SKY/WX   TEMP    WIND        PRES    WAVE
                                AIR SEA DIR/SP/G            HT/PER
                 (UTC)          (F)     (DEG/KT/KT) (MB)    (FT/S)
PULASKI SHOAL LI 0700            84     100/ 16/ 17 1017.0F
SAND KEY         0750            84     110/ 15/ 17 1017.4F
SOMBRERO KEY     0700            83      70/ 10/ 11 1018.4F
LONG KEY         0700            84 87  110/  9/ 10 1018.7F
MOLASSES REEF    0700            83 85  120/  9/ 10 1018.1F
FOWEY ROCKS      NOT AVBL

$$


USA.gov is the U.S. government's official web portal to all federal, state and local government web resources and services.